contact:dominique.lefevre@mio.osupytheas.fr, maurice.libes@osupytheas.fr
Project:EMSO Ligure-ouest http://www.emso-fr.org/EMSO-France
Sensor Aquadopp, line 13 Serial AQD14315 
DOI : "https://doi.org/10.17882/74513; https://doi.org/10.17882/83244" 
Title:EMSO Ligure Ouest : Data ligne ALBATROSS capteur AQUADOPP - deploiement 2021
Id,Date,Profondeur,Latitude,Longitude,X_East,Y_North,Z_Up,Amplitude_X,Amplitude_Y,Amplitude_Z,Batterie,SoundSpeed,Heading,Pitch,Roll,Pressure,Temperature,Speed,Direction
, , m, degrees North, degrees East, m.s-1, m.s-1,m.s-1, 1, 1, 1, Volt, m.s-1, degree, degree, degree, dbar, degree_C, m.s-1, degree
07,2022-03-19T21:30:00,1500.0,42.79,6.0312,-0.009,0.032,0.007,55.0,54.0,56.0,12.1,1504.1,178.8,-0.2,-0.4,1472.543,13.13,0.033,344.3
07,2022-03-19T22:00:00,1500.0,42.79,6.0312,-0.009,0.027,0.0,52.0,54.0,54.0,12.2,1504.1,171.9,-0.2,-0.3,1472.541,13.13,0.028,341.6
07,2022-03-19T22:30:00,1500.0,42.79,6.0312,-0.006,0.026,0.003,55.0,53.0,52.0,12.1,1504.1,164.6,-0.2,-0.3,1472.485,13.13,0.026,347.0
07,2022-03-19T23:00:00,1500.0,42.79,6.0312,-0.008,0.048,-0.017,52.0,52.0,53.0,12.2,1504.1,163.2,-0.1,0.0,1472.48,13.13,0.048,350.5
07,2022-03-19T23:30:00,1500.0,42.79,6.0312,0.002,0.028,-0.01,54.0,54.0,54.0,12.2,1504.1,166.6,-0.3,0.0,1472.479,13.13,0.028,4.1
07,2022-03-20T00:00:00,1500.0,42.79,6.0312,0.0,0.032,-0.015,55.0,53.0,53.0,12.1,1504.1,155.2,0.4,-0.2,1472.42,13.13,0.032,0.0
07,2022-03-20T00:30:00,1500.0,42.79,6.0312,0.001,0.034,-0.007,52.0,51.0,52.0,12.2,1504.1,160.3,-0.2,-0.4,1472.385,13.13,0.034,1.7
07,2022-03-20T01:00:00,1500.0,42.79,6.0312,0.011,0.03,-0.008,55.0,52.0,52.0,12.2,1504.1,168.4,0.0,-0.4,1472.335,13.13,0.031,20.1
07,2022-03-20T01:30:00,1500.0,42.79,6.0312,0.005,0.032,0.008,50.0,51.0,53.0,12.1,1504.1,161.6,0.1,-0.3,1472.381,13.13,0.032,8.9
07,2022-03-20T02:00:00,1500.0,42.79,6.0312,0.006,0.023,-0.014,49.0,52.0,52.0,12.1,1504.1,159.0,0.2,-0.3,1472.367,13.13,0.023,14.6
07,2022-03-20T02:30:00,1500.0,42.79,6.0312,-0.001,0.02,0.009,50.0,54.0,52.0,12.2,1504.1,163.9,-0.2,-0.4,1472.364,13.13,0.02,357.1
07,2022-03-20T03:00:00,1500.0,42.79,6.0312,-0.004,0.019,-0.016,51.0,52.0,52.0,12.2,1504.2,165.6,0.1,-0.3,1472.305,13.14,0.019,348.1
07,2022-03-20T03:30:00,1500.0,42.79,6.0312,0.016,0.015,-0.012,52.0,54.0,50.0,12.2,1504.1,166.9,0.2,-0.2,1472.353,13.13,0.021,46.9
07,2022-03-20T04:00:00,1500.0,42.79,6.0312,0.012,0.018,-0.016,51.0,51.0,50.0,12.1,1504.1,170.0,-0.2,-0.2,1472.301,13.13,0.021,33.7
07,2022-03-20T04:30:00,1500.0,42.79,6.0312,-0.003,0.019,0.006,51.0,51.0,53.0,12.1,1504.1,167.8,0.3,0.0,1472.351,13.13,0.019,351.0
07,2022-03-20T05:00:00,1500.0,42.79,6.0312,-0.003,0.011,0.006,51.0,49.0,53.0,12.1,1504.1,173.4,0.0,-0.4,1472.394,13.13,0.011,344.7
07,2022-03-20T05:30:00,1500.0,42.79,6.0312,-0.008,0.021,-0.004,50.0,52.0,50.0,12.2,1504.1,181.3,0.2,-0.3,1472.458,13.13,0.022,339.1
07,2022-03-20T06:00:00,1500.0,42.79,6.0312,-0.022,0.022,0.006,52.0,53.0,53.0,12.2,1504.1,185.8,0.0,-0.3,1472.46,13.13,0.031,315.0
07,2022-03-20T06:30:00,1500.0,42.79,6.0312,-0.016,0.025,0.0,51.0,50.0,50.0,12.2,1504.1,182.7,0.3,-0.3,1472.495,13.13,0.029,327.4
07,2022-03-20T07:00:00,1500.0,42.79,6.0312,-0.014,0.015,-0.006,52.0,52.0,56.0,12.2,1504.1,178.8,0.1,-0.3,1472.569,13.12,0.02,317.0
07,2022-03-20T07:30:00,1500.0,42.79,6.0312,-0.017,0.011,-0.001,53.0,58.0,53.0,12.2,1504.1,177.4,-0.2,-0.2,1472.596,13.12,0.02,302.9
07,2022-03-20T08:00:00,1500.0,42.79,6.0312,-0.026,0.008,0.001,50.0,52.0,51.0,12.1,1504.1,170.3,-0.1,-0.1,1472.577,13.12,0.027,287.1
07,2022-03-20T08:30:00,1500.0,42.79,6.0312,-0.021,0.006,-0.001,52.0,52.0,50.0,12.2,1504.0,173.7,-0.1,-0.2,1472.571,13.11,0.021,285.9
07,2022-03-20T09:00:00,1500.0,42.79,6.0312,-0.032,0.011,-0.007,51.0,52.0,50.0,12.2,1504.0,174.6,0.1,-0.1,1472.56,13.11,0.033,289.0
07,2022-03-20T09:30:00,1500.0,42.79,6.0312,-0.021,0.025,-0.003,52.0,53.0,50.0,12.1,1504.0,176.2,-0.1,-0.3,1472.559,13.11,0.032,320.0
07,2022-03-20T10:00:00,1500.0,42.79,6.0312,-0.028,0.02,-0.011,53.0,53.0,53.0,12.1,1504.0,180.9,0.1,-0.1,1472.558,13.11,0.034,305.5
07,2022-03-20T10:30:00,1500.0,42.79,6.0312,-0.015,0.022,-0.001,53.0,52.0,53.0,12.1,1504.1,189.1,-0.1,-0.3,1472.517,13.12,0.026,325.7
07,2022-03-20T11:00:00,1500.0,42.79,6.0312,-0.016,0.027,-0.01,52.0,53.0,53.0,12.1,1504.1,184.4,0.2,-0.3,1472.499,13.12,0.031,329.3
07,2022-03-20T12:00:00,1500.0,42.79,6.0312,-0.017,0.017,-0.003,52.0,52.0,52.0,12.1,1504.1,170.2,0.2,-0.3,1472.452,13.12,0.024,315.0
07,2022-03-20T12:30:00,1500.0,42.79,6.0312,-0.017,0.029,-0.006,51.0,54.0,51.0,12.1,1504.1,161.3,0.0,0.0,1472.41,13.13,0.033,329.6
07,2022-03-20T13:00:00,1500.0,42.79,6.0312,-0.019,0.042,0.005,52.0,53.0,52.0,12.2,1504.1,158.5,0.2,-0.1,1472.394,13.12,0.046,335.7
07,2022-03-20T13:30:00,1500.0,42.79,6.0312,-0.005,0.034,-0.001,52.0,52.0,53.0,12.2,1504.1,165.9,0.1,-0.2,1472.363,13.12,0.034,351.6
07,2022-03-20T14:00:00,1500.0,42.79,6.0312,0.014,0.035,0.001,52.0,52.0,52.0,12.2,1504.1,202.3,0.1,-0.2,1472.35,13.12,0.037,21.8
07,2022-03-20T14:30:00,1500.0,42.79,6.0312,-0.013,0.044,-0.006,51.0,52.0,51.0,12.2,1504.1,160.6,-0.1,-0.4,1472.329,13.12,0.045,343.5
07,2022-03-20T15:00:00,1500.0,42.79,6.0312,0.008,0.037,0.011,51.0,52.0,52.0,12.1,1504.1,173.6,-0.1,-0.4,1472.305,13.12,0.037,12.2
07,2022-03-20T15:30:00,1500.0,42.79,6.0312,-0.012,0.035,-0.001,49.0,51.0,51.0,12.2,1504.1,159.5,0.1,-0.4,1472.297,13.12,0.037,341.1
07,2022-03-20T16:00:00,1500.0,42.79,6.0312,0.008,0.036,-0.001,50.0,51.0,54.0,12.2,1504.1,159.5,0.1,-0.4,1472.287,13.12,0.036,12.5
07,2022-03-20T16:30:00,1500.0,42.79,6.0312,0.004,0.028,-0.011,51.0,51.0,50.0,12.2,1504.1,157.2,0.0,-0.3,1472.308,13.12,0.028,8.1
07,2022-03-20T17:00:00,1500.0,42.79,6.0312,0.0,0.019,-0.021,53.0,53.0,53.0,12.1,1504.1,167.4,-0.1,-0.3,1472.299,13.12,0.019,0.0
07,2022-03-20T17:30:00,1500.0,42.79,6.0312,0.012,0.031,-0.011,53.0,50.0,54.0,12.1,1504.1,173.1,0.1,-0.3,1472.358,13.12,0.033,21.2
07,2022-03-20T18:00:00,1500.0,42.79,6.0312,0.003,0.022,0.011,51.0,50.0,53.0,12.1,1504.1,172.0,0.0,-0.3,1472.381,13.12,0.022,7.8
07,2022-03-20T18:30:00,1500.0,42.79,6.0312,0.004,0.025,-0.006,50.0,50.0,54.0,12.1,1504.0,174.7,0.0,-0.4,1472.426,13.11,0.025,9.1
07,2022-03-20T19:00:00,1500.0,42.79,6.0312,0.014,0.018,-0.01,49.0,50.0,54.0,12.1,1504.0,173.1,-0.1,-0.2,1472.447,13.11,0.022,37.9
07,2022-03-20T19:30:00,1500.0,42.79,6.0312,0.012,0.009,0.014,49.0,54.0,50.0,12.1,1504.0,178.8,0.1,-0.1,1472.451,13.11,0.015,53.1
07,2022-03-20T20:00:00,1500.0,42.79,6.0312,-0.001,0.015,-0.016,51.0,53.0,52.0,12.1,1504.1,181.1,0.1,-0.3,1472.499,13.12,0.015,356.2
07,2022-03-20T20:30:00,1500.0,42.79,6.0312,0.003,0.016,0.0,49.0,51.0,51.0,12.2,1504.1,183.0,-0.2,-0.2,1472.506,13.12,0.016,10.6
